sat.trackr.live / text

‹ back to catalog

STARLINK-35381

NORAD 65826 · 2025-221D

PAYLOAD ACTIVE UNKNOWN

§ Identity

Operator
Country
US
Launch date
2025-09-29
Launch site
AFWTR
Launch vehicle
Mass (kg)
RCS (m²)

Purposes: comms

External: N2YO · Heavens-Above · Gunter

§ Orbital elements

Epoch: 2026-09-20T22:56:48.434496Z

Period
93.85 min
Inclination
53.1577°
Eccentricity
0.0002157
Mean motion
15.34411959 rev/d
Perigee alt
461.2 km
Apogee alt
464.1 km
Semi-major
6,840.8 km
B*
5.1193e-4
RAAN
257.5201°
Arg perigee
84.8743°
Mean anomaly
275.2505°
Rev number
5,603

§ Raw data

STARLINK-353811 65826U 25221D   26263.95611614  .00016966  00000+0  51193-3 0  99902 65826  53.1577 257.5201 0002157  84.8743 275.2505 15.34411959 56030

JSON: /api/v1/satellites/65826 · /tle

For live sub-satellite position, see the globe view (requires WebGL).

§ Visibility from observer

Set your observer location to see the next 7 days of passes ≥ 10°. The values pass through the URL so the page stays shareable.

No JS? Fill the form by hand. The geolocation button needs JavaScript.